Location: Unspecified
(41.5000°N, 0.0000°E)
Time: 20:17:09
(UTC+00:00)

Courier 1B Rocket - Pass Details

Date: 26 June 2019
Orbit: 920 x 1202 km, 28.2° (Epoch: 15 July)

Event Time Altitude Azimuth Distance (km) Brightness Sun altitude
Rises 01:34:20 0° 214° (SW) 4,017 - -21.7°
Reaches altitude 10° 01:38:30 10° 194° (SSW) 3,010 - -21.4°
Maximum altitude 01:42:37 16° 160° (SSE) 2,549 - -21.1°
Exits shadow 01:43:36 15° 150° (SSE) 2,562 6.9 -21.0°
Drops below altitude 10° 01:46:36 10° 125° (SE) 2,899 7.4 -20.8°
Sets 01:50:28 0° 105° (ESE) 3,795 8.2 -20.5°
